Flag for Norfolk Island Weather past 2 weeks in Kingston, Norfolk Island

Now
75 °F

Broken clouds.


Feels Like: 77 °F
Forecast: 69 / 77 °F
Wind: 22 mph from East

Location: Norfolk Island Airport

Current Time: Jan 26, 2015 at 12:41:40 PM

Latest Report: Jan 26, 2015 at 11:30 AM


Visibility: N/A

Pressure: 29.80 "Hg

Humidity: 74%

Dew point: 66 °F

Location of KingstonLocation

Historic Weather in Kingston — Graph

°F

Kingston temperature yesterday

Maximum temperature yesterday: 73 °F (at 12:00 AM)
Minimum temperature yesterday: 72 °F (at 2:30 PM)
Average temperature yesterday: 73 °F

Past Weeks' High & Low Weather Summary

 TemperatureHumidityPressure
High81 °F (Jan 17, 12:00 PM)100% (Jan 21, 3:30 PM)30.01 "Hg (Jan 21, 3:30 PM)
Low64 °F (Jan 12, 4:00 AM)54% (Jan 16, 9:30 AM)29.71 "Hg (Jan 22, 5:30 AM)
Average72 °F79%29.85 "Hg
* Reported Jan 11 10:30 AM — Jan 26 11:00 AM, Kingston, Weather by CustomWeather, © 2014

Note: Actual official high and low records may vary slightly from our data, if they occured in-between our weather recording intervals... More about our weather records

Advertising

Kingston weather history for previous 24 hours

 ConditionsComfort  
Time TempWeatherWind HumidityBarometerVisibility
11:00 AM
Jan 26
75 °FBroken clouds.21 mph69%29.80 "HgN/A
10:30 AM75 °FPartly sunny.21 mph69%29.80 "HgN/A
10:00 AM75 °FBroken clouds.18 mph69%29.80 "HgN/A
9:30 AM75 °FBroken clouds.22 mph65%29.80 "HgN/A
9:00 AM73 °FBroken clouds.21 mph69%29.80 "HgN/A
8:00 AM73 °FPartly sunny.21 mph69%29.80 "HgN/A
7:30 AM72 °FPartly sunny.22 mph78%29.80 "HgN/A
6:30 AM72 °FMostly cloudy.21 mph78%29.80 "HgN/A
6:00 AM72 °FCloudy.22 mph78%29.80 "HgN/A
5:30 AM72 °FCloudy.22 mph78%29.80 "HgN/A
5:00 AM72 °FPartly cloudy.23 mph78%29.80 "HgN/A
4:30 AM72 °FOvercast.23 mph78%29.80 "HgN/A
3:30 AM72 °FPartly cloudy.22 mph78%29.80 "HgN/A
3:00 AM72 °FMostly cloudy.22 mph78%29.80 "HgN/A
2:30 AM72 °FMostly cloudy.21 mph78%29.80 "HgN/A
2:00 AM72 °FOvercast.20 mph83%29.83 "HgN/A
1:30 AM72 °FMostly cloudy.17 mph83%29.83 "HgN/A
12:30 AM72 °FMostly cloudy.18 mph83%29.83 "HgN/A
12:00 AM73 °FMostly cloudy.20 mph74%29.86 "HgN/A
11:33 PM
Jan 25
72 °FOvercast.21 mph78%29.86 "HgN/A
11:00 PM73 °FMostly cloudy.18 mph74%29.86 "HgN/A
10:30 PM73 °FPartly cloudy.21 mph69%29.86 "HgN/A
10:00 PM72 °FOvercast.22 mph78%29.86 "HgN/A
9:30 PM72 °FOvercast.20 mph83%29.86 "HgN/A
9:00 PM72 °FMostly cloudy.20 mph83%29.86 "HgN/A
8:30 PM72 °FMostly cloudy.22 mph78%29.86 "HgN/A
7:30 PM72 °FMostly cloudy.20 mph73%29.86 "HgN/A
6:30 PM72 °FPartly sunny.17 mph78%29.83 "HgN/A
6:00 PM72 °FLight rain. Partly sunny.22 mph73%29.83 "HgN/A
5:34 PM72 °FBroken clouds.22 mph69%29.83 "HgN/A
5:30 PM72 °FBroken clouds.23 mph69%29.83 "HgN/A
5:00 PM72 °FBroken clouds.21 mph73%29.83 "HgN/A
4:30 PM72 °FPartly sunny.23 mph78%29.83 "HgN/A
4:00 PM72 °FPartly sunny.24 mph73%29.83 "HgN/A
3:30 PM72 °FPartly sunny.22 mph73%29.86 "HgN/A
3:00 PM72 °FLight rain. Broken clouds.21 mph73%29.86 "Hg6 mi
2:30 PM72 °FSprinkles. Partly sunny.22 mph78%29.86 "Hg6 mi
1:30 PM73 °FPartly sunny.23 mph69%29.89 "HgN/A
1:00 PM73 °FBroken clouds.23 mph69%29.89 "HgN/A
12:30 PM73 °FBroken clouds.23 mph74%29.89 "HgN/A
12:15 PM73 °FBroken clouds.22 mph78%29.89 "HgN/A
Weather by CustomWeather, © 2014

See weather overviewHow to use our weather pages